Find Optus B1

NORAD ID: 22087 Int'l Des: 1992-054 Owner: OPT Country: AU operational
HEOCIRCULAR

当前视图

正在加载3D地球...

关于 Optus B1

正在加载描述...

即将过境

Passes for default location (London). Set your location on the main map for personalized predictions.

高度历史

Loading altitude history...

两行轨道根数

1 22087U 92054A 26149.22197534 .00000076 00000-0 00000+0 0 9996
2 22087 12.9149 24.2599 0007853 113.7431 248.6899 0.99201553134526
Epoch: May 29, 2026 • Age: 24 hours

当前状态

高度 36102.5 km
速度 3.06 km/s
星下点 -0.17°S, 56.12°E
发射日期 Aug 13, 1992
运行时间 33.7 years
类型 other

技术详情

分类 Payload
质量 2900.00 kg
干质量 1200.00 kg
总质量 2900.00 kg
长度 2.30 m
直径 2.30 m
跨度 20.60 m
形状 Box + 2 Pan
制造商 HSES
平台类型 HS-601
阶段状态 In Orbit
所有者/国家 OPT/AU

Most Searched